Retour au catalogue

RADARSAT

ActifScienceSSO
NORAD 23710·PAYLOAD·🇨🇦 Canada

Lancé Nov 4, 1995 depuis Vandenberg Space Force Base

Loading…

Prochains Passages (prochaines 24 heures)

TLE

FraisSource: Space-Track

Époque: Sep 14, 2026, 07:05 UTC

1 23710U 95059A   26257.29565811  .00000124  00000-0  61864-4 0  9996
2 23710  98.5495 265.0269 0001443  99.0885 261.0462 14.32441853611101

Suivez RADARSAT en temps réel avec AllMySat

Download on the App Store